Hourly Data Report for March 19, 2021

KUGAARUK CLIMATE
NUNAVUT
Current Station Operator: ECCC - MSC

68°32'15.060" N
89°47'47.020" W
15.80 m
2303094
71407
NBB

Download Data

Hourly Data (March 2021)
Hourly Data Report for March 19, 2021
TIME
LST
Temp Definition
°C
Dew Point Definition
°C
Rel Hum Definition
%
Precip. Amount Definition
mm

Wind Dir Definition
10's deg

Wind Spd Definition
km/h
Visibility Definition
km
Stn Press Definition
kPa
Hmdx Definition


Wind Chill Definition


Weather Definition


00:00 -24.6 -28.5 70 0.0 23 11   100.97   -33 LegendNANA
01:00 -25.8 -29.2 73 0.0 28 8   101.00   -33 LegendNANA
02:00 -25.7 -29.1 73 0.0 26 11   101.01   -34 LegendNANA
03:00 -25.2 -28.4 74 0.0 24 15   101.02   -35 LegendNANA
04:00 -25.8 -28.9 75 0.0 25 21   101.04   -38 LegendNANA
05:00 -26.5 -29.7 75 0.0 24 6   101.09   -32 LegendNANA
06:00 -25.7 -29.1 73 0.0 23 32   101.08   -40 LegendNANA
07:00 -26.2 -29.8 72 0.0 26 14   101.12   -36 LegendNANA
08:00 -26.2 -30.5 67 0.0 26 15   101.15   -37 LegendNANA
09:00 -25.8 -30.0 68 0.0 25 22   101.14   -38 LegendNANA
10:00 -25.6 -30.3 65 0.0 23 30   101.17   -40 LegendNANA
11:00 -25.2 -29.8 66 0.0 24 29   101.22   -39 LegendNANA
12:00 -24.3 -29.0 65 0.0 23 23   101.28   -37 LegendNANA
13:00 -23.9 -28.6 65 0.0 23 22   101.31   -36 LegendNANA
14:00 -23.8 -28.3 66 0.0 23 29   101.32   -37 LegendNANA
15:00 -24.4 -28.6 68 0.0 23 24   101.34   -37 LegendNANA
16:00 -24.8 -28.6 71 0.0 25 26   101.38   -38 LegendNANA
17:00 -25.0 -28.6 72 0.0 23 24   101.40   -38 LegendNANA
18:00 -25.7 -29.2 72 0.0 23 27   101.39   -39 LegendNANA
19:00 -26.3 -29.8 72 0.0 24 20   101.41   -38 LegendNANA
20:00 -27.2 -30.5 74 0.0 26 12   101.42   -37 LegendNANA
21:00 -28.2 -31.2 75 0.0 26 11   101.43   -38 LegendNANA
22:00 -29.2 -32.5 73 0.0 24 18   101.41   -41 LegendNANA
23:00 -29.0 -32.5 72 0.0 25 15   101.44   -40 LegendNANA

Notes on Data Quality.

Legend

  • E = Estimated
  • M = Missing
  • NA = Not Available*
  • [empty] = Indicates an unobserved value
Date modified: